| time (UTC) | temp F | wind direction | speed MPH | gust MPH | rain 1hr in | rain 24hr in | rain mn in | humidity % | barometer mb |
| 20260504044554 | 38 | 297 | 0.0 | 3.0 | 0.00 | 0.00 | 0.00 | 88 | 1015.7 |
| 20260504043055 | 38 | 206 | 0.0 | 6.0 | 0.00 | 0.00 | 0.00 | 87 | 1015.3 |
| 20260504041549 | 39 | 0 | 0.0 | 6.0 | 0.00 | 0.00 | 0.00 | 87 | 1015.3 |
| 20260504040049 | 39 | 295 | 0.0 | 4.0 | 0.00 | 0.00 | 0.00 | 87 | 1015.3 |
| 20260504034555 | 39 | 308 | 0.0 | 3.0 | 0.00 | 0.00 | 0.00 | 85 | 1015.5 |
| 20260504033055 | 40 | 0 | 0.0 | 3.0 | 0.00 | 0.00 | 0.00 | 83 | 1015.4 |
| 20260504031552 | 40 | 260 | 0.0 | 5.0 | 0.00 | 0.00 | 0.00 | 83 | 1015.6 |
| 20260504030054 | 41 | 335 | 0.0 | 3.0 | 0.00 | 0.00 | 0.00 | 82 | 1015.3 |
| 20260504024553 | 42 | 0 | 0.0 | 3.0 | 0.00 | 0.00 | 0.00 | 78 | 1015.0 |
| 20260504023057 | 43 | 0 | 0.0 | 2.0 | 0.00 | 0.00 | 0.00 | 75 | 1015.1 |
| 20260504021553 | 44 | 0 | 0.0 | 1.0 | 0.00 | 0.00 | 0.00 | 72 | 1014.9 |
| 20260504020115 | 45 | 342 | 0.0 | 2.0 | 0.00 | 0.00 | 0.00 | 70 | 1014.7 |
| 20260504014548 | 47 | 0 | 0.0 | 6.0 | 0.00 | 0.00 | 0.00 | 68 | 1015.0 |
| 20260504013102 | 49 | 0 | 0.0 | 5.0 | 0.00 | 0.00 | 0.00 | 66 | 1015.1 |
| 20260504011549 | 52 | 0 | 0.0 | 5.0 | 0.00 | 0.00 | 0.00 | 51 | 1015.0 |
| 20260504010052 | 54 | 257 | 1.0 | 6.0 | 0.00 | 0.00 | 0.00 | 45 | 1014.8 |
| 20260504004553 | 54 | 306 | 1.0 | 9.0 | 0.00 | 0.00 | 0.00 | 47 | 1015.0 |
| 20260504003054 | 54 | 304 | 0.0 | 3.0 | 0.00 | 0.00 | 0.00 | 44 | 1014.8 |
| 20260504001554 | 54 | 309 | 1.0 | 7.0 | 0.00 | 0.00 | 0.00 | 45 | 1015.2 |
| 20260504000055 | 54 | 118 | 1.0 | 9.0 | 0.00 | 0.00 | 0.00 | 46 | 1015.4 |
| 20260503234556 | 55 | 330 | 0.0 | 7.0 | 0.00 | 0.00 | 0.00 | 48 | 1015.7 |
| 20260503233047 | 55 | 0 | 0.0 | 6.0 | 0.00 | 0.00 | 0.00 | 49 | 1015.7 |
| 20260503231552 | 54 | 338 | 1.0 | 7.0 | 0.00 | 0.00 | 0.00 | 48 | 1016.2 |
| 20260503230058 | 55 | 109 | 1.0 | 6.0 | 0.00 | 0.00 | 0.00 | 45 | 1016.3 |
| 20260503224558 | 56 | 356 | 1.0 | 4.0 | 0.00 | 0.00 | 0.00 | 44 | 1016.4 |
| 20260503223057 | 57 | 86 | 1.0 | 6.0 | 0.00 | 0.00 | 0.00 | 44 | 1016.6 |
| 20260503221604 | 58 | 220 | 1.0 | 7.0 | 0.00 | 0.00 | 0.00 | 42 | 1016.5 |
| 20260503220128 | 58 | 118 | 1.0 | 6.0 | 0.00 | 0.00 | 0.00 | 42 | 1016.6 |
| 20260503214547 | 59 | 338 | 2.0 | 7.0 | 0.00 | 0.00 | 0.00 | 39 | 1016.5 |
| 20260503213046 | 59 | 315 | 2.0 | 12.0 | 0.00 | 0.00 | 0.00 | 41 | 1016.3 |
| 20260503211544 | 60 | 77 | 2.0 | 18.0 | 0.00 | 0.00 | 0.00 | 40 | 1016.2 |
| 20260503210045 | 62 | 274 | 1.0 | 8.0 | 0.00 | 0.00 | 0.00 | 38 | 1016.2 |
| 20260503204606 | 63 | 249 | 1.0 | 6.0 | 0.00 | 0.00 | 0.00 | 37 | 1016.3 |
| 20260503203049 | 63 | 302 | 1.0 | 6.0 | 0.00 | 0.00 | 0.00 | 37 | 1016.6 |
| 20260503201548 | 63 | 313 | 1.0 | 8.0 | 0.00 | 0.00 | 0.00 | 38 | 1016.6 |
| 20260503200047 | 63 | 290 | 1.0 | 5.0 | 0.00 | 0.00 | 0.00 | 36 | 1016.7 |
| 20260503194548 | 62 | 262 | 0.0 | 5.0 | 0.00 | 0.00 | 0.00 | 38 | 1016.8 |
| 20260503193048 | 62 | 328 | 1.0 | 5.0 | 0.00 | 0.00 | 0.00 | 37 | 1017.1 |
| 20260503191607 | 61 | 338 | 1.0 | 4.0 | 0.00 | 0.00 | 0.00 | 36 | 1017.3 |
| 20260503190048 | 61 | 248 | 1.0 | 10.0 | 0.00 | 0.00 | 0.00 | 38 | 1017.3 |
| 20260503184547 | 60 | 205 | 2.0 | 7.0 | 0.00 | 0.00 | 0.00 | 37 | 1017.4 |
| 20260503183045 | 62 | 271 | 1.0 | 5.0 | 0.00 | 0.00 | 0.00 | 36 | 1017.4 |
| 20260503181552 | 63 | 236 | 1.0 | 7.0 | 0.00 | 0.00 | 0.00 | 33 | 1017.4 |
| 20260503180058 | 62 | 314 | 0.0 | 4.0 | 0.00 | 0.00 | 0.00 | 35 | 1017.4 |
| 20260503174553 | 62 | 288 | 1.0 | 4.0 | 0.00 | 0.00 | 0.00 | 32 | 1017.5 |
| 20260503173048 | 61 | 300 | 1.0 | 5.0 | 0.00 | 0.00 | 0.00 | 32 | 1017.5 |
| 20260503171549 | 62 | 321 | 0.0 | 6.0 | 0.00 | 0.00 | 0.00 | 32 | 1017.6 |
| 20260503081551 | 42 | 103 | 0.0 | 3.0 | 0.00 | 0.00 | 0.00 | 62 | 1019.0 |
| 20260503071601 | 41 | 0 | 0.0 | 1.0 | 0.00 | 0.00 | 0.00 | 66 | 1019.5 |